FW2602 Weather Reports


Display with metric or nautical units.
time (UTC)temp
F
wind
direction
speed
MPH
gust
MPH
rain 1hr
in
rain 24hr
in
rain mn
in
humidity
%
barometer
mb
20260903015558 64 54 1.0 5.0 0.00 0.05 0.04 92 1015.6
20260903015057 64 295 0.0 9.0 0.00 0.05 0.04 92 1015.7
20260903014559 64 110 0.0 9.0 0.00 0.05 0.04 92 1015.6
20260903014057 64 285 1.0 7.0 0.00 0.05 0.04 92 1015.6
20260903013519 64 316 0.0 5.0 0.00 0.05 0.04 92 1016.0
20260903013031 64 248 1.0 5.0 0.00 0.05 0.04 92 1016.0
20260903012514 65 295 1.0 6.0 0.00 0.05 0.04 92 1015.9
20260903012014 65 134 2.0 6.0 0.00 0.05 0.04 93 1015.4
20260903011519 64 360 1.0 6.0 0.00 0.05 0.04 93 1015.5
20260903011026 64 111 0.0 11.0 0.00 0.05 0.04 93 1015.8
20260903010511 65 358 0.0 11.0 0.00 0.05 0.04 93 1015.9
20260903010020 65 96 2.0 9.0 0.00 0.05 0.04 92 1015.7
20260903005522 65 88 1.0 7.0 0.00 0.05 0.04 92 1015.8
20260903005008 65 47 0.0 7.0 0.00 0.05 0.04 92 1016.0
20260903004518 65 311 1.0 8.0 0.00 0.05 0.04 93 1016.2
20260903004019 65 300 2.0 8.0 0.00 0.05 0.04 93 1016.3
20260903003525 64 312 3.0 9.0 0.00 0.05 0.04 94 1016.0
20260903003012 64 252 4.0 9.0 0.00 0.05 0.04 95 1015.7
20260903002519 64 339 1.0 7.0 0.00 0.05 0.04 96 1015.7
20260903002022 63 311 0.0 4.0 0.00 0.05 0.04 96 1015.7
20260903001527 63 20 0.0 4.0 0.00 0.05 0.04 96 1016.0
20260903001012 63 56 0.0 5.0 0.00 0.05 0.04 96 1016.0
20260903000517 63 76 2.0 9.0 0.00 0.05 0.04 96 1015.9
20260903000017 63 82 2.0 9.0 0.00 0.05 0.04 97 1015.7
20260902235526 63 58 0.0 8.0 0.00 0.05 0.04 97 1015.0
20260902235008 62 303 1.0 8.0 0.00 0.05 0.04 97 1014.6
20260902234518 62 65 2.0 10.0 0.00 0.05 0.04 96 1014.3
20260902234018 62 323 1.0 10.0 0.00 0.05 0.04 96 1014.1
20260902233507 62 72 2.0 11.0 0.00 0.05 0.04 96 1013.9
20260902233014 62 89 3.0 11.0 0.00 0.05 0.04 96 1013.8
20260902232527 62 37 5.0 11.0 0.00 0.05 0.04 96 1014.3
20260902232009 62 34 4.0 14.0 0.00 0.05 0.04 96 1014.6
20260902231517 62 77 2.0 14.0 0.00 0.05 0.04 96 1014.8
20260902231023 62 62 3.0 9.0 0.00 0.05 0.04 96 1014.9
20260902230512 62 48 3.0 10.0 0.00 0.05 0.04 96 1015.3
20260902230016 62 64 3.0 10.0 0.00 0.05 0.04 96 1015.7
20260902225526 62 117 3.0 9.0 0.00 0.05 0.04 96 1015.7
20260902225012 62 54 3.0 10.0 0.00 0.05 0.04 96 1015.8
20260902224521 63 109 4.0 10.0 0.00 0.05 0.04 95 1015.9
20260902224022 63 80 1.0 10.0 0.00 0.05 0.04 95 1016.1
20260902223517 63 73 3.0 12.0 0.00 0.05 0.04 95 1016.2
20260902223018 63 121 5.0 11.0 0.00 0.05 0.04 95 1016.1
20260902222523 63 90 4.0 7.0 0.00 0.05 0.04 95 1016.4
20260902222009 63 65 1.0 6.0 0.00 0.05 0.04 95 1016.6
20260902221523 63 60 0.0 5.0 0.00 0.05 0.04 95 1016.6
20260902221018 63 96 2.0 8.0 0.00 0.05 0.04 95 1016.7
20260902220525 63 82 3.0 14.0 0.00 0.05 0.04 95 1016.5
20260902220008 63 56 4.0 14.0 0.00 0.05 0.04 95 1016.5
20260902215516 63 103 6.0 13.0 0.00 0.05 0.04 95 1016.5
20260902215020 63 79 6.0 11.0 0.00 0.05 0.04 95 1016.6
20260902214510 63 71 5.0 11.0 0.00 0.05 0.04 95 1016.6
20260902214016 63 88 5.0 11.0 0.00 0.05 0.04 94 1016.6
20260902213526 64 69 4.0 11.0 0.00 0.05 0.04 94 1016.6
20260902213022 64 67 3.0 14.0 0.00 0.05 0.04 94 1016.6
20260902212518 64 76 5.0 14.0 0.00 0.05 0.04 94 1016.5
20260902212020 64 41 6.0 14.0 0.00 0.05 0.04 94 1016.6
20260902211509 64 66 5.0 12.0 0.00 0.05 0.04 94 1016.5
20260902211014 64 115 6.0 14.0 0.00 0.05 0.04 94 1016.5
20260902210522 64 207 7.0 14.0 0.00 0.05 0.04 93 1016.6
20260902210014 65 108 6.0 11.0 0.00 0.05 0.04 93 1016.7
20260902205515 65 62 5.0 12.0 0.00 0.07 0.04 92 1016.7
20260902205019 65 113 5.0 12.0 0.00 0.07 0.04 92 1016.7
20260902204507 66 159 5.0 11.0 0.00 0.07 0.04 91 1016.7
20260902204014 66 60 5.0 11.0 0.00 0.07 0.04 91 1016.6
20260902203517 67 134 6.0 11.0 0.00 0.07 0.04 91 1016.6
20260902203025 67 42 3.0 11.0 0.00 0.07 0.04 91 1016.7
20260902202526 67 60 4.0 13.0 0.00 0.07 0.04 91 1016.9
20260902202011 67 84 4.0 13.0 0.00 0.07 0.04 90 1016.7
20260902201519 67 91 5.0 11.0 0.00 0.07 0.04 90 1016.5
20260902201017 67 70 4.0 11.0 0.00 0.07 0.04 91 1016.5
20260902200522 68 108 5.0 11.0 0.00 0.07 0.04 90 1016.7
20260902200013 68 62 2.0 11.0 0.00 0.07 0.04 91 1017.0
20260902195514 68 62 4.0 10.0 0.00 0.07 0.04 91 1017.1
20260902195021 68 257 3.0 10.0 0.00 0.07 0.04 91 1017.2
20260902194511 68 41 4.0 11.0 0.00 0.07 0.04 92 1017.0
20260902194017 67 101 5.0 11.0 0.00 0.07 0.04 92 1017.0
20260902193523 67 93 5.0 9.0 0.00 0.07 0.04 92 1016.9
20260902193009 67 94 5.0 12.0 0.00 0.07 0.04 93 1017.0
20260902192516 67 64 6.0 12.0 0.00 0.07 0.04 92 1017.0
20260902192023 67 105 5.0 11.0 0.00 0.07 0.04 92 1017.0
20260902191537 67 82 6.0 11.0 0.00 0.07 0.04 92 1017.1
20260902191017 67 70 2.0 6.0 0.00 0.07 0.04 94 1016.9
20260902190521 66 82 2.0 6.0 0.00 0.07 0.04 93 1017.0
20260902190022 67 62 2.0 8.0 0.00 0.07 0.04 93 1017.0
20260902185508 67 105 4.0 8.0 0.00 0.08 0.04 92 1017.1
20260902185016 68 65 3.0 8.0 0.00 0.08 0.04 91 1017.2
20260902184533 69 75 1.0 4.0 0.00 0.08 0.04 93 1017.3
20260902184028 68 44 1.0 3.0 0.00 0.08 0.04 93 1017.1
20260902183514 68 4 0.0 3.0 0.01 0.08 0.04 94 1016.9
20260902183017 67 302 1.0 3.0 0.01 0.08 0.04 94 1016.9
20260902182526 67 55 0.0 4.0 0.01 0.08 0.04 95 1016.7
20260902182008 66 54 1.0 6.0 0.01 0.08 0.04 96 1016.7
20260902181517 66 322 3.0 6.0 0.02 0.08 0.04 96 1016.7
20260902181017 65 305 0.0 7.0 0.02 0.08 0.04 96 1016.8
20260902180526 65 78 1.0 9.0 0.02 0.08 0.04 95 1017.1
20260902180013 65 60 3.0 8.0 0.02 0.08 0.04 96 1017.1
20260902175515 65 82 4.0 9.0 0.03 0.11 0.04 96 1017.0
20260902175022 65 60 2.0 9.0 0.03 0.11 0.04 96 1017.1
20260902174526 65 41 0.0 4.0 0.03 0.11 0.04 96 1017.2
20260902174011 65 89 0.0 4.0 0.03 0.11 0.04 96 1017.0
20260902173519 64 81 0.0 8.0 0.03 0.10 0.03 96 1017.0
20260902173019 64 60 4.0 9.0 0.03 0.10 0.03 96 1016.6
20260902172524 64 45 3.0 9.0 0.03 0.10 0.03 95 1016.4
20260902172012 64 48 2.0 7.0 0.03 0.10 0.03 95 1016.4
20260902171521 65 101 0.0 8.0 0.02 0.09 0.02 96 1016.9
20260902171021 65 302 2.0 8.0 0.02 0.09 0.02 96 1017.0
20260902170511 64 335 1.0 8.0 0.02 0.09 0.02 97 1017.1
20260902170014 64 307 2.0 8.0 0.02 0.09 0.02 97 1017.5
20260902165523 64 108 1.0 7.0 0.01 0.11 0.01 97 1017.7
20260902165009 63 318 1.0 4.0 0.01 0.11 0.01 97 1017.9
20260902164516 62 316 0.0 4.0 0.01 0.11 0.01 96 1018.2
20260902164022 62 44 0.0 4.0 0.01 0.11 0.01 96 1018.4
20260902163507 62 323 0.0 4.0 0.00 0.10 0.00 96 1018.3
20260902163014 62 47 0.0 4.0 0.00 0.10 0.00 96 1018.3
20260902162523 62 53 1.0 6.0 0.00 0.10 0.00 96 1018.1
20260902162008 62 108 2.0 6.0 0.00 0.10 0.00 95 1018.3
20260902161516 62 27 1.0 7.0 0.00 0.10 0.00 95 1018.2
20260902161025 62 75 3.0 7.0 0.00 0.10 0.00 95 1018.2
20260902160514 62 82 2.0 9.0 0.00 0.10 0.00 95 1018.0
20260902160015 63 91 2.0 9.0 0.00 0.10 0.00 95 1017.7
20260902155525 63 67 3.0 9.0 0.00 0.11 0.00 95 1017.7
20260902155012 63 94 3.0 10.0 0.00 0.11 0.00 95 1017.7
20260902154526 63 84 3.0 9.0 0.00 0.11 0.00 95 1017.9
20260902154006 63 41 4.0 9.0 0.00 0.11 0.00 95 1017.8
20260902153535 63 69 4.0 9.0 0.00 0.11 0.00 95 1018.1
20260902153021 63 74 1.0 7.0 0.00 0.11 0.00 96 1018.1
20260902152522 63 51 3.0 9.0 0.00 0.11 0.00 95 1018.2
20260902152026 63 82 3.0 9.0 0.00 0.11 0.00 96 1018.3
20260902151511 63 56 1.0 7.0 0.00 0.11 0.00 96 1018.3
20260902151016 63 53 2.0 7.0 0.00 0.11 0.00 96 1018.5
20260902150524 63 96 1.0 5.0 0.00 0.11 0.00 96 1018.6
20260902150012 63 56 2.0 4.0 0.00 0.11 0.00 96 1018.7
20260902145520 63 84 0.0 3.0 0.00 0.13 0.00 96 1018.5
20260902145016 63 67 0.0 4.0 0.00 0.13 0.00 96 1018.4
20260902144527 63 331 0.0 6.0 0.00 0.13 0.00 96 1018.4
20260902144023 63 68 2.0 9.0 0.00 0.13 0.00 96 1018.3
20260902143529 63 47 3.0 9.0 0.00 0.13 0.00 96 1018.4
20260902143014 63 55 3.0 8.0 0.00 0.13 0.00 96 1018.3
20260902142521 63 88 2.0 6.0 0.00 0.13 0.00 96 1018.3
20260902142025 63 77 1.0 6.0 0.00 0.13 0.00 96 1018.4
20260902141511 63 23 1.0 6.0 0.00 0.13 0.00 96 1018.4
20260902141015 63 112 1.0 5.0 0.00 0.13 0.00 96 1018.5
20260902140520 63 58 0.0 6.0 0.00 0.13 0.00 96 1018.5
20260902140021 63 123 1.0 6.0 0.00 0.13 0.00 96 1018.4
20260902135510 63 147 1.0 6.0 0.00 0.13 0.00 97 1018.3
20260902135016 63 57 0.0 9.0 0.00 0.13 0.00 97 1018.2
20260902134523 63 162 2.0 11.0 0.00 0.13 0.00 96 1018.0
20260902134009 63 62 3.0 11.0 0.00 0.13 0.00 96 1017.9
20260902133516 63 72 2.0 11.0 0.00 0.13 0.00 97 1017.9
20260902133017 63 60 3.0 11.0 0.00 0.13 0.00 97 1018.0
20260902132527 63 67 5.0 11.0 0.00 0.13 0.00 97 1017.9
20260902132014 63 68 4.0 9.0 0.00 0.13 0.00 98 1017.9
20260902131521 63 60 4.0 8.0 0.00 0.13 0.00 98 1018.0
20260902131024 63 82 3.0 6.0 0.00 0.13 0.00 98 1018.0
20260902130513 63 75 3.0 7.0 0.00 0.13 0.00 98 1018.1
20260902130017 63 96 2.0 6.0 0.00 0.13 0.00 98 1018.2
20260902125522 63 77 1.0 6.0 0.00 0.15 0.00 98 1018.2
20260902125005 62 165 3.0 6.0 0.00 0.15 0.00 98 1018.2
20260902124515 62 80 3.0 7.0 0.00 0.15 0.00 98 1018.1
20260902124019 62 179 2.0 8.0 0.00 0.15 0.00 98 1018.2
20260902123508 61 122 1.0 8.0 0.00 0.15 0.00 98 1018.1
20260902123012 61 71 2.0 5.0 0.00 0.15 0.00 98 1018.0
20260902122519 61 47 0.0 4.0 0.00 0.15 0.00 98 1018.1
20260902122008 61 44 0.0 4.0 0.00 0.15 0.00 98 1017.8
20260902121556 61 4 0.0 6.0 0.00 0.15 0.00 98 1017.8
20260902121055 61 10 1.0 7.0 0.00 0.15 0.00 98 1017.7
20260902120655 61 81 2.0 9.0 0.00 0.15 0.00 98 1017.7
20260902120106 61 56 4.0 9.0 0.00 0.15 0.00 98 1017.7
20260902115556 61 96 1.0 6.0 0.00 0.25 0.00 98 1017.6
20260902115056 61 60 3.0 6.0 0.00 0.25 0.00 98 1017.6
20260902114554 61 82 0.0 6.0 0.00 0.25 0.00 98 1017.7
20260902114054 61 350 0.0 6.0 0.00 0.25 0.00 98 1017.6
20260902113553 61 15 1.0 7.0 0.00 0.25 0.00 98 1017.4
20260902113053 61 72 4.0 8.0 0.00 0.25 0.00 98 1017.4
20260902112555 61 60 0.0 4.0 0.00 0.25 0.00 98 1017.5
20260902112053 61 328 0.0 6.0 0.00 0.25 0.00 98 1017.6
20260902111602 62 20 0.0 6.0 0.00 0.25 0.00 98 1017.8
20260902111052 62 70 2.0 6.0 0.00 0.25 0.00 98 1017.7
20260902110552 62 75 0.0 4.0 0.00 0.25 0.00 98 1017.8
20260902110051 62 314 0.0 5.0 0.00 0.25 0.00 98 1017.8
20260902105551 62 173 0.0 6.0 0.00 0.27 0.00 98 1018.0
20260902105051 61 51 1.0 8.0 0.00 0.27 0.00 98 1017.9
20260902104551 61 91 4.0 9.0 0.00 0.27 0.00 98 1018.0
20260902104051 61 96 4.0 9.0 0.00 0.27 0.00 98 1017.9
20260902103550 61 305 0.0 4.0 0.00 0.27 0.00 98 1017.8
20260902103050 61 73 0.0 4.0 0.00 0.27 0.00 98 1017.8
20260902102551 61 355 0.0 3.0 0.00 0.27 0.00 98 1017.8
20260902102050 61 69 0.0 3.0 0.00 0.27 0.00 98 1017.9
20260902101550 61 97 0.0 4.0 0.00 0.27 0.00 98 1018.1
20260902101048 61 54 0.0 4.0 0.00 0.27 0.00 98 1018.0
20260902100548 61 56 0.0 4.0 0.00 0.27 0.00 98 1017.8
20260902100101 61 92 0.0 4.0 0.00 0.27 0.00 98 1017.8
20260902095547 61 115 0.0 4.0 0.00 0.36 0.00 98 1017.7
20260902095049 61 37 0.0 4.0 0.00 0.36 0.00 98 1017.7
20260902094546 61 58 2.0 4.0 0.00 0.36 0.00 98 1017.6
20260902094046 61 58 0.0 3.0 0.00 0.36 0.00 98 1017.7
20260902093545 61 89 0.0 1.0 0.00 0.36 0.00 98 1017.6
20260902093044 61 57 0.0 5.0 0.00 0.36 0.00 98 1017.6
20260902092544 61 68 1.0 5.0 0.00 0.36 0.00 98 1017.5
20260902092044 61 4 0.0 1.0 0.00 0.36 0.00 98 1017.4
20260902091549 61 5 0.0 1.0 0.00 0.36 0.00 98 1017.4
20260902091045 61 5 0.0 4.0 0.00 0.36 0.00 98 1017.4
20260902090543 61 4 0.0 6.0 0.00 0.36 0.00 98 1017.4
20260902090043 61 83 2.0 6.0 0.00 0.36 0.00 98 1017.4
20260902085542 61 117 1.0 3.0 0.00 0.40 0.00 98 1017.4
20260902085042 61 312 0.0 1.0 0.00 0.40 0.00 98 1017.3
20260902084542 61 310 0.0 1.0 0.00 0.40 0.00 98 1017.3
20260902084045 61 76 0.0 1.0 0.00 0.40 0.00 98 1017.3
20260902083540 61 44 0.0 1.0 0.00 0.40 0.00 98 1017.2
20260902083041 61 87 0.0 2.0 0.00 0.40 0.00 98 1017.3
20260902082640 61 86 0.0 2.0 0.00 0.40 0.00 98 1017.2
20260902082040 61 328 0.0 4.0 0.00 0.40 0.00 98 1017.1
20260902081539 61 42 0.0 5.0 0.00 0.40 0.00 98 1016.9
20260902081038 61 290 0.0 3.0 0.00 0.40 0.00 98 1016.9
20260902080538 62 83 0.0 5.0 0.00 0.40 0.00 98 1016.9
20260902080038 62 53 1.0 6.0 0.00 0.40 0.00 98 1016.9
20260902075538 62 131 0.0 5.0 0.00 0.51 0.00 98 1016.9
20260902075038 62 307 0.0 3.0 0.00 0.51 0.00 98 1016.9
20260902074541 62 41 0.0 3.0 0.00 0.51 0.00 98 1016.9
20260902074037 62 291 0.0 3.0 0.00 0.51 0.00 98 1016.9
20260902073537 62 293 0.0 3.0 0.00 0.51 0.00 98 1016.9
20260902073037 62 11 0.0 2.0 0.00 0.51 0.00 98 1017.0
20260902072535 62 316 0.0 3.0 0.00 0.51 0.00 98 1017.1
20260902072038 62 309 0.0 6.0 0.00 0.51 0.00 98 1017.1
20260902071535 62 303 0.0 6.0 0.00 0.51 0.00 98 1017.1
20260902071038 62 312 0.0 4.0 0.00 0.51 0.00 98 1017.1
20260902070535 62 6 0.0 3.0 0.00 0.51 0.00 98 1017.1
20260902070034 62 86 0.0 3.0 0.00 0.51 0.00 98 1017.2
20260902065534 62 332 0.0 1.0 0.00 0.51 0.00 98 1017.3
20260902065034 62 328 0.0 2.0 0.00 0.51 0.00 98 1017.3
20260902064534 62 309 0.0 5.0 0.00 0.51 0.00 98 1017.4
20260902064033 62 306 1.0 5.0 0.00 0.51 0.00 98 1017.3
20260902063534 62 88 0.0 4.0 0.00 0.51 0.00 98 1017.3
20260902063041 62 139 0.0 2.0 0.00 0.51 0.00 98 1017.4
20260902062534 63 326 0.0 1.0 0.00 0.51 0.00 98 1017.3
20260902062035 63 326 0.0 2.0 0.00 0.51 0.00 98 1017.5
20260902061530 63 71 0.0 2.0 0.00 0.51 0.00 98 1017.4
20260902061031 63 281 0.0 3.0 0.00 0.51 0.00 98 1017.5
20260902060531 63 321 0.0 5.0 0.00 0.51 0.00 98 1017.5
20260902060029 63 54 1.0 5.0 0.00 0.51 0.00 98 1017.4
20260902055528 63 11 0.0 3.0 0.00 0.51 0.00 98 1017.3
20260902055029 63 56 0.0 3.0 0.00 0.51 0.00 98 1017.3
20260902054534 63 306 0.0 2.0 0.00 0.51 0.00 98 1017.3
20260902054028 63 15 0.0 2.0 0.00 0.51 0.00 98 1017.2
20260902053529 63 294 0.0 2.0 0.00 0.51 0.00 98 1017.2
20260902053028 63 269 0.0 1.0 0.00 0.51 0.00 98 1017.2
20260902052530 63 270 0.0 1.0 0.00 0.51 0.00 98 1017.3
20260902052029 63 270 0.0 2.0 0.00 0.51 0.00 98 1017.2
20260902051524 63 274 0.0 5.0 0.00 0.51 0.00 98 1016.9
20260902051024 63 288 0.0 5.0 0.00 0.51 0.00 98 1016.8
20260902050527 63 64 0.0 4.0 0.00 0.51 0.00 98 1016.7
20260902050051 63 59 0.0 3.0 0.00 0.51 0.00 98 1016.8
20260902045526 64 355 0.0 2.0 0.00 0.51 0.00 98 1016.7
20260902045022 64 297 0.0 3.0 0.00 0.51 0.00 98 1016.7
20260902044522 64 94 0.0 3.0 0.00 0.51 0.00 98 1016.7
20260902044021 64 26 0.0 2.0 0.00 0.51 0.00 98 1016.6
20260902043520 64 27 0.0 4.0 0.00 0.51 0.00 98 1016.5
20260902043029 64 357 0.0 4.0 0.00 0.51 0.00 98 1016.4
20260902042523 64 33 0.0 4.0 0.00 0.51 0.00 98 1016.3
20260902042019 64 79 1.0 4.0 0.00 0.51 0.00 98 1016.3
20260902041516 64 134 0.0 5.0 0.00 0.51 0.00 98 1016.2
20260902041016 64 71 0.0 4.0 0.00 0.51 0.00 98 1016.2
20260902040516 64 88 0.0 1.0 0.00 0.51 0.00 98 1016.2
20260902040019 64 79 0.0 1.0 0.00 0.51 0.00 98 1016.2
20260902035516 64 1 0.0 4.0 0.00 0.51 0.51 98 1016.2
20260902035017 64 60 0.0 4.0 0.00 0.51 0.51 98 1016.1
20260902034521 64 307 0.0 2.0 0.00 0.51 0.51 98 1016.1
20260902034014 64 61 0.0 2.0 0.00 0.51 0.51 98 1016.1
20260902033515 64 299 0.0 2.0 0.00 0.51 0.51 98 1016.1
20260902033014 64 293 0.0 2.0 0.00 0.51 0.51 98 1016.2
20260902032516 64 85 0.0 1.0 0.00 0.51 0.51 98 1016.1
20260902032014 64 84 0.0 1.0 0.00 0.51 0.51 98 1016.0
20260902031514 64 30 0.0 0.0 0.00 0.51 0.51 98 1016.0
20260902031016 64 30 0.0 0.0 0.00 0.51 0.51 98 1015.9
20260902030515 64 30 0.0 1.0 0.00 0.51 0.51 98 1016.0
20260902030013 64 30 0.0 2.0 0.00 0.51 0.51 98 1016.0
20260902025513 64 309 0.0 2.0 0.00 0.51 0.51 98 1016.1
20260902025013 65 297 0.0 3.0 0.01 0.51 0.51 98 1016.1
20260902024513 65 275 0.0 2.0 0.01 0.51 0.51 98 1016.2
20260902024012 65 301 0.0 2.0 0.01 0.51 0.51 98 1016.3
20260902023512 65 83 0.0 2.0 0.01 0.51 0.51 98 1016.4
20260902023012 65 308 0.0 1.0 0.01 0.51 0.51 98 1016.5
20260902022513 65 308 0.0 1.0 0.01 0.51 0.51 98 1016.5
20260902022012 65 308 0.0 1.0 0.01 0.51 0.51 98 1016.5
20260902021511 65 308 0.0 1.0 0.01 0.51 0.51 98 1016.6
20260902021011 65 308 0.0 0.0 0.01 0.51 0.51 98 1016.5
20260902020511 65 307 0.0 0.0 0.01 0.51 0.51 98 1016.4
20260902020011 65 307 0.0 0.0 0.01 0.51 0.51 98 1016.5